DW4505 Weather Reports


time (UTC)temp
C
wind
direction
speed
KPH
gust
KPH
rain 1hr
cm
rain 24hr
cm
rain mn
cm
humidity
%
barometer
mb
20260505214008 24 162 3.2 12.9 0.00 0.00 0.00 59 1015.0
20260505213509 25 132 4.8 12.9 0.00 0.00 0.00 58 1015.0
20260505213008 25 134 4.8 14.5 0.00 0.00 0.00 57 1014.8
20260505212008 25 163 4.8 14.5 0.00 0.00 0.00 57 1014.9
20260505211509 25 166 4.8 17.7 0.00 0.00 0.00 57 1014.9
20260505211009 25 174 3.2 17.7 0.00 0.00 0.00 56 1014.9
20260505210508 25 152 4.8 19.3 0.00 0.00 0.00 56 1015.0
20260505205509 25 155 3.2 11.3 0.00 0.00 0.00 56 1015.1
20260505205010 25 150 4.8 20.9 0.00 0.00 0.00 55 1015.0
20260505204009 26 129 3.2 12.9 0.00 0.00 0.00 55 1015.1
20260505203509 26 135 3.2 12.9 0.00 0.00 0.00 54 1015.2
20260505203008 26 167 3.2 9.7 0.00 0.00 0.00 54 1015.0
20260505202510 26 194 3.2 17.7 0.00 0.00 0.00 54 1014.9
20260505202009 26 183 3.2 17.7 0.00 0.00 0.00 54 1014.9
20260505201510 26 136 4.8 16.1 0.00 0.00 0.00 54 1015.0
20260505201008 26 127 4.8 14.5 0.00 0.00 0.00 54 1015.0
20260505200508 26 144 4.8 14.5 0.00 0.00 0.00 55 1015.0
20260505200009 26 144 4.8 11.3 0.00 0.00 0.00 55 1015.1
20260505195509 26 117 4.8 14.5 0.00 0.00 0.00 55 1015.1
20260505195008 26 128 3.2 14.5 0.00 0.00 0.00 56 1015.1
20260505194509 26 134 4.8 17.7 0.00 0.00 0.00 53 1015.3
20260505194009 26 199 4.8 17.7 0.00 0.00 0.00 54 1015.4
20260505193509 26 195 4.8 17.7 0.00 0.00 0.00 53 1015.6
20260505193009 26 141 4.8 12.9 0.00 0.00 0.00 53 1015.6
20260505192509 26 146 3.2 14.5 0.00 0.00 0.00 53 1015.7
20260505192008 26 152 3.2 17.7 0.00 0.00 0.00 53 1015.8
20260505191008 26 122 3.2 19.3 0.00 0.00 0.00 55 1015.9
20260505190508 26 129 4.8 19.3 0.00 0.00 0.00 53 1016.0
20260505190008 26 148 3.2 14.5 0.00 0.00 0.00 53 1015.9
20260505185508 26 151 3.2 16.1 0.00 0.00 0.00 54 1015.9
20260505185009 26 176 3.2 16.1 0.00 0.00 0.00 53 1015.9
20260505184508 26 145 3.2 16.1 0.00 0.00 0.00 54 1015.9
20260505184008 26 128 4.8 16.1 0.00 0.00 0.00 53 1015.9
20260505183508 26 129 4.8 20.9 0.00 0.00 0.00 54 1015.9
20260505183009 26 145 4.8 20.9 0.00 0.00 0.00 54 1015.8
20260505182509 26 163 3.2 11.3 0.00 0.00 0.00 53 1015.8
20260505181009 26 160 3.2 11.3 0.00 0.00 0.00 53 1016.2
20260505180509 26 139 3.2 11.3 0.00 0.00 0.00 52 1016.3
20260505180008 26 156 1.6 11.3 0.00 0.00 0.00 53 1016.3
20260505175509 26 185 1.6 12.9 0.00 0.00 0.00 53 1016.3
20260505175008 26 188 3.2 12.9 0.00 0.00 0.00 53 1016.3
20260505174508 26 214 3.2 12.9 0.00 0.00 0.00 54 1016.3
20260505174008 26 141 3.2 16.1 0.00 0.00 0.00 54 1016.3
20260505172509 26 171 3.2 12.9 0.00 0.00 0.00 55 1016.4
20260505172008 25 155 4.8 19.3 0.00 0.00 0.00 54 1016.5
20260505165509 25 130 1.6 8.0 0.00 0.00 0.00 56 1016.7
20260505165009 25 135 3.2 8.0 0.00 0.00 0.00 58 1016.8
20260505164509 25 142 1.6 9.7 0.00 0.00 0.00 58 1016.8
20260505164009 25 148 1.6 9.7 0.00 0.00 0.00 60 1016.9
20260505163508 25 181 3.2 12.9 0.00 0.00 0.00 61 1017.0
20260505163009 25 199 3.2 12.9 0.00 0.00 0.00 59 1017.0
20260505162509 25 186 1.6 6.4 0.00 0.00 0.00 59 1017.0
20260505162010 25 176 1.6 8.0 0.00 0.00 0.00 59 1017.0
20260505161508 25 203 3.2 12.9 0.00 0.00 0.00 59 1017.1
20260505161008 25 187 3.2 12.9 0.00 0.00 0.00 59 1017.2
20260505160509 25 184 1.6 8.0 0.00 0.00 0.00 60 1017.2
20260505153008 24 104 3.2 11.3 0.00 0.00 0.00 60 1017.4
20260505152512 24 140 1.6 11.3 0.00 0.00 0.00 61 1017.4
20260505152009 24 172 1.6 9.7 0.00 0.00 0.00 60 1017.5
20260505151509 24 207 1.6 8.0 0.00 0.00 0.00 62 1017.5
20260505151008 23 240 1.6 8.0 0.00 0.00 0.00 61 1017.4
20260505150510 23 222 0.0 4.8 0.00 0.00 0.00 63 1017.4
20260505140509 22 186 3.2 9.7 0.00 0.00 0.00 67 1017.4
20260505125009 19 187 0.0 1.6 0.00 0.00 0.00 80 1017.3
20260505124509 18 0 0.0 0.0 0.00 0.00 0.00 81 1017.2
20260505123509 17 219 0.0 3.2 0.00 0.00 0.00 83 1017.3
20260505122508 16 122 0.0 3.2 0.00 0.00 0.00 88 1017.2
20260505122009 16 0 0.0 0.0 0.00 0.00 0.00 90 1017.3
20260505121509 15 0 0.0 0.0 0.00 0.00 0.00 92 1017.2
20260505121010 14 0 0.0 0.0 0.00 0.00 0.00 94 1017.1
20260505120009 13 0 0.0 0.0 0.00 0.00 0.00 95 1017.0
20260505115509 12 0 0.0 0.0 0.00 0.00 0.00 95 1017.0
20260505115008 12 0 0.0 0.0 0.00 0.00 0.00 95 1017.0
20260505114508 12 0 0.0 0.0 0.00 0.00 0.00 95 1017.0
20260505114009 11 0 0.0 0.0 0.00 0.00 0.00 95 1017.0
20260505113509 11 0 0.0 0.0 0.00 0.00 0.00 95 1016.9
20260505113009 11 0 0.0 0.0 0.00 0.00 0.00 94 1016.9
20260505112508 11 0 0.0 0.0 0.00 0.00 0.00 94 1016.8
20260505111009 11 0 0.0 0.0 0.00 0.00 0.00 94 1016.5
20260505110509 11 0 0.0 0.0 0.00 0.00 0.00 94 1016.5
20260505102009 11 0 0.0 0.0 0.00 0.00 0.00 94 1016.1
20260505101509 11 0 0.0 0.0 0.00 0.00 0.00 93 1016.0
20260505101010 11 0 0.0 0.0 0.00 0.00 0.00 93 1016.0
20260505100509 11 0 0.0 0.0 0.00 0.00 0.00 93 1016.0
20260505100009 11 0 0.0 0.0 0.00 0.00 0.00 93 1015.9
20260505095509 11 0 0.0 0.0 0.00 0.00 0.00 93 1015.8
20260505095010 11 0 0.0 0.0 0.00 0.00 0.00 93 1015.8
20260505094509 11 0 0.0 0.0 0.00 0.00 0.00 93 1015.8
20260505094009 11 0 0.0 0.0 0.00 0.00 0.00 93 1015.7
20260505093509 11 0 0.0 0.0 0.00 0.00 0.00 93 1015.7
20260505093008 11 0 0.0 0.0 0.00 0.00 0.00 93 1015.7
20260505092508 11 0 0.0 0.0 0.00 0.00 0.00 93 1015.7
20260505092008 11 0 0.0 0.0 0.00 0.00 0.00 93 1015.6
20260505091508 11 0 0.0 0.0 0.00 0.00 0.00 93 1015.6
20260505091008 11 0 0.0 0.0 0.00 0.00 0.00 93 1015.6
20260505090508 11 0 0.0 0.0 0.00 0.00 0.00 93 1015.6
20260505090008 11 0 0.0 0.0 0.00 0.00 0.00 93 1015.5
20260505085509 11 0 0.0 0.0 0.00 0.00 0.00 93 1015.4
20260505085010 11 0 0.0 0.0 0.00 0.00 0.00 93 1015.4
20260505084508 11 0 0.0 0.0 0.00 0.00 0.00 93 1015.3
20260505084008 11 0 0.0 0.0 0.00 0.00 0.00 93 1015.3
20260505083008 11 0 0.0 0.0 0.00 0.00 0.00 93 1015.2
20260505082508 11 0 0.0 0.0 0.00 0.00 0.00 92 1015.3
20260505082009 11 0 0.0 0.0 0.00 0.00 0.00 92 1015.3
20260505081509 11 0 0.0 0.0 0.00 0.00 0.00 92 1015.3
20260505080508 11 0 0.0 0.0 0.00 0.00 0.00 92 1015.3
20260505080009 11 0 0.0 0.0 0.00 0.00 0.00 92 1015.2
20260505075509 11 0 0.0 0.0 0.00 0.00 0.00 92 1015.2
20260505075010 11 0 0.0 0.0 0.00 0.00 0.00 92 1015.3
20260505074509 11 0 0.0 0.0 0.00 0.00 0.00 92 1015.3
20260505073508 11 0 0.0 0.0 0.00 0.00 0.00 92 1015.2
20260505073008 11 0 0.0 0.0 0.00 0.00 0.00 92 1015.2
20260505072509 11 0 0.0 0.0 0.00 0.00 0.00 92 1015.3
20260505072009 11 0 0.0 0.0 0.00 0.00 0.00 91 1015.3
20260505071510 12 0 0.0 0.0 0.00 0.00 0.00 91 1015.2
20260505071009 12 0 0.0 0.0 0.00 0.00 0.00 91 1015.3
20260505070510 12 0 0.0 0.0 0.00 0.00 0.00 91 1015.2
20260505070009 12 0 0.0 0.0 0.00 0.00 0.00 91 1015.2
20260505065510 12 0 0.0 0.0 0.00 0.00 0.00 91 1015.3
20260505065008 12 0 0.0 0.0 0.00 0.00 0.00 91 1015.3
20260505064509 12 0 0.0 0.0 0.00 0.00 0.00 91 1015.3
20260505064008 12 0 0.0 0.0 0.00 0.00 0.00 91 1015.3
20260505063509 12 0 0.0 0.0 0.00 0.00 0.00 90 1015.2
20260505063008 12 0 0.0 0.0 0.00 0.00 0.00 91 1015.3
20260505062509 12 0 0.0 0.0 0.00 0.00 0.00 90 1015.3
20260505062009 12 0 0.0 0.0 0.00 0.00 0.00 90 1015.4
20260505061509 12 0 0.0 0.0 0.00 0.00 0.00 90 1015.4
20260505061008 12 0 0.0 0.0 0.00 0.00 0.00 90 1015.5
20260505060509 12 0 0.0 0.0 0.00 0.00 0.00 90 1015.5
20260505060009 12 0 0.0 0.0 0.00 0.00 0.00 90 1015.6
20260505055509 12 0 0.0 0.0 0.00 0.00 0.00 89 1015.6
20260505055009 12 0 0.0 0.0 0.00 0.00 0.00 89 1015.7
20260505054508 12 0 0.0 0.0 0.00 0.00 0.00 89 1015.7
20260505054009 12 0 0.0 0.0 0.00 0.00 0.00 89 1015.8
20260505053509 12 0 0.0 0.0 0.00 0.00 0.00 89 1015.9
20260505053009 12 0 0.0 0.0 0.00 0.00 0.00 89 1016.0
20260505052509 12 0 0.0 0.0 0.00 0.00 0.00 89 1016.0
20260505051508 12 0 0.0 0.0 0.00 0.00 0.00 88 1016.0
20260505051009 12 0 0.0 0.0 0.00 0.00 0.00 88 1016.0
20260505050509 13 0 0.0 0.0 0.00 0.00 0.00 87 1016.1
20260505041509 13 0 0.0 0.0 0.00 0.00 0.00 85 1015.9
20260505041010 13 0 0.0 0.0 0.00 0.00 0.00 84 1015.9
20260505040509 13 0 0.0 0.0 0.00 0.00 0.00 84 1015.9
20260505040011 13 0 0.0 0.0 0.00 0.00 0.00 84 1016.0
20260505035509 14 0 0.0 0.0 0.00 0.00 0.00 83 1016.0
20260505035010 14 0 0.0 0.0 0.00 0.00 0.00 83 1016.0
20260505034509 14 0 0.0 0.0 0.00 0.00 0.00 83 1016.0
20260505034009 14 0 0.0 0.0 0.00 0.00 0.00 82 1015.9
20260505033509 14 0 0.0 0.0 0.00 0.00 0.00 81 1015.9
20260505033009 15 0 0.0 0.0 0.00 0.00 0.00 81 1016.0
20260505032509 15 0 0.0 0.0 0.00 0.00 0.00 81 1016.0
20260505032009 15 0 0.0 0.0 0.00 0.00 0.00 80 1015.9
20260505031508 15 0 0.0 0.0 0.00 0.00 0.00 80 1016.0
20260505031008 15 0 0.0 0.0 0.00 0.00 0.00 79 1016.1
20260505030010 15 0 0.0 0.0 0.00 0.00 0.00 78 1016.1
20260505025509 16 0 0.0 0.0 0.00 0.00 0.00 77 1016.1
20260505025008 16 0 0.0 0.0 0.00 0.00 0.00 77 1016.1
20260505024509 16 0 0.0 0.0 0.00 0.00 0.00 77 1016.1
20260505023509 16 0 0.0 0.0 0.00 0.00 0.00 76 1016.1
20260505022011 17 0 0.0 0.0 0.00 0.00 0.00 74 1016.1
20260505021509 17 0 0.0 0.0 0.00 0.00 0.00 73 1016.1
20260505020509 17 203 0.0 1.6 0.00 0.00 0.00 72 1016.1
20260505020009 17 203 0.0 1.6 0.00 0.00 0.00 71 1016.0
20260505015509 17 0 0.0 0.0 0.00 0.00 0.00 71 1016.0
20260505015009 17 0 0.0 0.0 0.00 0.00 0.00 70 1016.0
20260505014509 17 0 0.0 0.0 0.00 0.00 0.00 70 1015.9
20260505014010 17 138 0.0 3.2 0.00 0.00 0.00 70 1015.9
20260505013509 18 175 0.0 4.8 0.00 0.00 0.00 69 1015.9
20260505013009 18 185 0.0 4.8 0.00 0.00 0.00 69 1015.8
20260505012510 18 149 0.0 3.2 0.00 0.00 0.00 69 1015.7
20260505012011 18 134 0.0 1.6 0.00 0.00 0.00 69 1015.6
20260505011509 18 170 0.0 1.6 0.00 0.00 0.00 68 1015.5
20260505011009 18 141 1.6 6.4 0.00 0.00 0.00 68 1015.4
20260505010509 18 137 0.0 6.4 0.00 0.00 0.00 68 1015.4
20260505010009 18 115 0.0 3.2 0.00 0.00 0.00 67 1015.4
20260505005508 18 124 0.0 3.2 0.00 0.00 0.00 67 1015.3
20260505005009 18 137 0.0 3.2 0.00 0.00 0.00 67 1015.3
20260505004509 18 140 0.0 3.2 0.00 0.00 0.00 66 1015.3
20260505004010 18 155 0.0 3.2 0.00 0.00 0.00 65 1015.2
20260505003009 19 208 0.0 6.4 0.00 0.00 0.00 64 1015.1
20260505002009 19 202 1.6 6.4 0.00 0.00 0.00 63 1015.0
20260505001508 20 203 1.6 6.4 0.00 0.00 0.00 63 1015.0
20260505001009 20 173 1.6 6.4 0.00 0.00 0.00 62 1015.0
20260505000510 20 174 1.6 6.4 0.00 0.00 0.00 62 1015.0
20260505000009 20 189 1.6 12.9 0.00 0.00 0.00 61 1015.0
20260504235509 20 170 1.6 12.9 0.00 0.00 0.00 61 1014.9
20260504235010 20 137 1.6 8.0 0.00 0.00 0.00 60 1014.8
20260504234508 20 139 1.6 8.0 0.00 0.00 0.00 60 1014.7
20260504234010 20 136 1.6 9.7 0.00 0.00 0.00 59 1014.7
20260504233009 21 144 3.2 17.7 0.00 0.00 0.00 58 1014.7
20260504232509 21 138 3.2 17.7 0.00 0.00 0.00 58 1014.7
20260504232008 21 139 3.2 9.7 0.00 0.00 0.00 58 1014.6
20260504231008 21 146 3.2 9.7 0.00 0.00 0.00 57 1014.4
20260504230509 21 135 3.2 17.7 0.00 0.00 0.00 57 1014.4
20260504230010 21 129 4.8 17.7 0.00 0.00 0.00 56 1014.4
20260504225508 21 137 3.2 16.1 0.00 0.00 0.00 56 1014.3
20260504225009 21 163 3.2 14.5 0.00 0.00 0.00 56 1014.3
20260504224510 21 166 4.8 19.3 0.00 0.00 0.00 55 1014.4
20260504224009 22 159 3.2 19.3 0.00 0.00 0.00 55 1014.5
20260504223509 22 149 3.2 16.1 0.00 0.00 0.00 55 1014.4
20260504223009 22 134 4.8 16.1 0.00 0.00 0.00 55 1014.4
20260504222510 22 140 4.8 22.5 0.00 0.00 0.00 55 1014.4
20260504222009 22 148 3.2 22.5 0.00 0.00 0.00 55 1014.5
20260504221008 22 148 3.2 16.1 0.00 0.00 0.00 55 1014.3
20260504220509 23 156 3.2 12.9 0.00 0.00 0.00 55 1014.3
20260504220009 23 157 3.2 11.3 0.00 0.00 0.00 55 1014.3
20260504215508 23 123 4.8 16.1 0.00 0.00 0.00 54 1014.3
20260504215008 23 138 4.8 16.1 0.00 0.00 0.00 54 1014.3
20260504214509 23 149 4.8 16.1 0.00 0.00 0.00 54 1014.4